Location: ????????
(56.0167°N, 38.0333°E)
Time: 13:36:28
(UTC+00:00)

Meteor 1-14 Rocket - Pass Details

Date: 19 May 2025
Orbit: 833 x 917 km, 81.3° (Epoch: 19 June)

Event Time Altitude Azimuth Distance (km) Brightness Sun altitude
Rises 19:28:11 0° 344° (NNW) 3,406 9.3 -10.2°
Reaches altitude 10° 19:30:35 10° 342° (NNW) 2,473 8.2 -10.3°
Maximum altitude 19:36:09 71° 260° (W) 904 4.4 -10.7°
Enters shadow 19:41:27 12° 178° (S) 2,370 6.0 -11.0°
